Zurück zum Katalog

SL-12 R/B

AUX MOTOR

AktivHEO
NORAD 32399·ROCKET BODY·🇷🇺 Russia

Gestartet Dec 25, 2007 von Baikonur Cosmodrome

Loading…

Nächste Überflüge (nächste 24 Stunden)

TLE

AktuellSource: Space-Track

Epoche: Sep 10, 2026, 21:47 UTC

1 32399U 07065G   26253.90795983  .00000035  00000-0  17682-3 0  9997
2 32399  65.1953 107.8012 5618920 247.8626  45.2159  4.25007830289590

Verfolge SL-12 R/B in Echtzeit mit AllMySat

Download on the App Store